Weather in Tominsky

Russia / Chelyabinsk Oblast     54°57′31″N   61°11′05″E
temp.,
°C
wind,
m/s
gust,
m/s
humid.,
%
clouds,
%
prec.,
mm/h
press.,
hPa
HPBL,
m
21 june, mon
mon2123:00+14nnw9163698 0.0 1016786
02:00+10nnw612501 0.0 1018390
05:00+9nnw614570 0.0 1019491
08:00+12nnw812525 0.0 1021873
11:00+15n8104676 0.0 10221344
14:00+18n674396 0.0 10221623
17:00+19n463829 0.0 10221555
20:00+17e1152100 0.0 102111
22 june, tue
tue2223:00+13sw33545 0.0 102121
02:00+13sw345498 0.0 102167
05:00+13w2258100 0.0 102024
08:00+18w355948 0.0 1019299
11:00+21wnw356223 0.0 1018728
14:00+26wnw5104868 0.1 10161690
17:00+25wnw12146315 0.1 1014874
20:00+23w81569100 0.1 1014479
23 june, wed
wed2323:00+18nne59940 1.0 1016280
02:00+14nne359521 0.0 101793
05:00+14nne4891100 0.0 1020375
08:00+13ne4786100 0.1 1021454
11:00+14ne357698 0.2 1022557
14:00+18ene33495 0.0 10221453
17:00+20ne244219 0.0 10222007
20:00+17ene35590 0.0 1022148
24 june, thu
thu2423:00+13e11635 0.0 102310
02:00+11sw22640 0.0 102211
05:00+10wsw22725 0.0 102322
08:00+16sw115798 0.0 1022259
11:00+20ssw22444 0.0 10211239
14:00+22sw22375 0.0 10201721
17:00+24wnw12365 0.0 10191569
20:00+21sse22515 0.0 101829
25 june, fri
fri2523:00+16s48614 0.0 1017120
02:00+15ssw410866 0.0 1015162
05:00+16sw498899 0.0 1013156
08:00+21wsw687395 0.0 1012403
11:00+26wnw68565 0.0 10101270
14:00+29nw684936 0.0 10082032
17:00+25nw71260100 0.1 1007504
20:00+23nw611735 0.3 1007519